DELTA 1 DEB

Satellite information

Favourite Embed

Satellite Type and Status

DEBRISIN ORBIT

Key statistics

Satellite DELTA 1 DEB at a glance.

Uptime

18448

Days in orbit

Revolutions

≈ 13.1

Per day

Orbit

SSO

Sun Synchronous Orbit

Inclination

99.7

Latest

Satellite identification and parameters

Extended collection of information and parameters for DELTA 1 DEB.

Object identification

Identified? True

Debris? True

Object name: DELTA 1 DEB

International designator: 1975-052CH

Object number (NORAD): 21363

Object ID (CCSDS): 21363

Country: UNITED STATES OF AMERICA (US)

Current information (Y/N): Y

RCS size: SMALL

Orbital parameters

Period: 109.902 minutes

Inclination: 99.7389 deg

SMA: 7600.3 km

Apoapsis: 1355.21 km

Periapsis: 1089.121 km

RAAN: 275.3889 deg

Eccentricy: 0.01750517

Argument of periapsis: 343.6039 deg

Mean anomaly: 190.0451 deg

Mean motion: 13.10257478 rev/day

Mean motion (dot): 0.00000257 rev/day2

B* drag term: 0.00079018428 1/REarth

Two-line elements (TLE)

Creation date: Dec. 14, 2025, 3:07 a.m.

Reference frame: TEME

Reference center: EARTH

Epoch: Dec. 13, 2025, 2:18 p.m. UTC

TLE line 0: 0 DELTA 1 DEB

TLE line 1: 1 21363U 75052CH 25347.59596933 .00000257 00000-0 79018-3 0 9996

TLE line 2: 2 21363 99.7389 275.3889 0175052 343.6039 190.0451 13.10257478652148

Live tracking on map

Real-time ground track for satellite DELTA 1 DEB.

In-orbit conjunctions

A list of the most updated potential collisions computed for object DELTA 1 DEB.

Target Orbit TCA Probability of collision Miss distance Type
THOR ABLESTAR DEB LEO 2025-12-16 22:46:10 0.0001498875 795.0 (m) DEBRIS

Associated space launch

Experimental meteorological satellite

DELTA 1 DEB was lifted into orbit during the mission ‘Delta 2910 | Nimbus 6’, on board a Delta 2910 space rocket.

The launch took place on June 12, 1975, 8:12 a.m. from Space Launch Complex 2W.

For more information about the launch, click the button.

Launch to space Delta 2910 | Nimbus 6
Delta 2910 | Nimbus 6

Agency: N/A

Status: Launch Successful

Launch date: June 12, 1975, 8:12 a.m. UTC

Rocket: Delta 2910

Launch pad: Space Launch Complex 2W

Location: Vandenberg SFB, CA, USA

...

Latest news about this satellite

There are no fresh news available about this satellite. Check back as we update our databases every day.


Newsletter sign-up

Weekly statistics, charts and insights to help you stay on top of the space industry.